When you browse on this site, cookies collect data to enhance your experience and personalize the content and advertising you see.
Visit our Privacy Policy to learn more. By continuing to use the site, you agree to this use of cookies and data.

Previsão horária em Aahalden

Hoje, 22 Setembro, Terça-feira

Tempo Temperatura Precipitação Vento Pressão Humidade
00:00 +14°C° 0 mm 1 m/s 709 mmHg 88%
01:00 +14°C° 0 mm 1 m/s 709 mmHg 86%
02:00 +14°C° 0 mm 1 m/s 709 mmHg 86%
03:00 +14°C° 0 mm 1 m/s 709 mmHg 87%
04:00 +13°C° 0 mm 1 m/s 709 mmHg 87%
05:00 +13°C° 0.1 mm 1 m/s 709 mmHg 86%
06:00 +14°C° 0.1 mm 1 m/s 709 mmHg 86%
07:00 +14°C° 0.1 mm 1 m/s 709 mmHg 85%
08:00 +16°C° 0 mm 1 m/s 709 mmHg 78%
09:00 +18°C° 0 mm 0 m/s 709 mmHg 70%
10:00 +20°C° 0 mm 0 m/s 709 mmHg 62%
11:00 +23°C° 0.1 mm 1 m/s 709 mmHg 60%
12:00 +23°C° 0.1 mm 1 m/s 709 mmHg 58%
13:00 +24°C° 0.1 mm 1 m/s 708 mmHg 57%
14:00 +24°C° 0.5 mm 1 m/s 708 mmHg 60%
15:00 +23°C° 0.5 mm 1 m/s 707 mmHg 63%
16:00 +21°C° 0.5 mm 0 m/s 707 mmHg 66%
17:00 +19°C° 0.3 mm 0 m/s 707 mmHg 71%
18:00 +18°C° 0.3 mm 0 m/s 706 mmHg 76%
19:00 +18°C° 0.3 mm 1 m/s 706 mmHg 81%
20:00 +16°C° 0.3 mm 1 m/s 706 mmHg 83%
21:00 +16°C° 0.3 mm 1 m/s 706 mmHg 86%
22:00 +15°C° 0.3 mm 1 m/s 706 mmHg 88%
23:00 +15°C° 0.4 mm 1 m/s 706 mmHg 89%

Amanhã, 23 Setembro, Quarta-feira

Tempo Temperatura Precipitação Vento Pressão Humidade
00:00 +15°C° 0.4 mm 1 m/s 706 mmHg 90%
01:00 +15°C° 0.4 mm 1 m/s 706 mmHg 91%
02:00 +15°C° 0.3 mm 1 m/s 706 mmHg 91%
03:00 +15°C° 0.3 mm 1 m/s 706 mmHg 91%
04:00 +15°C° 0.3 mm 1 m/s 706 mmHg 91%
05:00 +15°C° 0.1 mm 1 m/s 706 mmHg 92%
06:00 +15°C° 0.1 mm 1 m/s 706 mmHg 92%
07:00 +15°C° 0.1 mm 1 m/s 706 mmHg 93%
08:00 +16°C° 0.2 mm 1 m/s 706 mmHg 91%
09:00 +16°C° 0.2 mm 1 m/s 706 mmHg 90%
10:00 +18°C° 0.2 mm 1 m/s 706 mmHg 88%
11:00 +19°C° 0.4 mm 1 m/s 706 mmHg 85%
12:00 +20°C° 0.4 mm 1 m/s 706 mmHg 82%
13:00 +21°C° 0.4 mm 1 m/s 706 mmHg 78%
14:00 +21°C° 0.6 mm 1 m/s 706 mmHg 78%
15:00 +21°C° 0.6 mm 1 m/s 705 mmHg 77%
16:00 +21°C° 0.6 mm 1 m/s 705 mmHg 76%
17:00 +20°C° 0.5 mm 1 m/s 705 mmHg 81%
18:00 +18°C° 0.5 mm 1 m/s 705 mmHg 86%
19:00 +14°C° 0.5 mm 0 m/s 705 mmHg 90%
20:00 +15°C° 0.1 mm 1 m/s 705 mmHg 91%
21:00 +14°C° 0.1 mm 1 m/s 705 mmHg 91%
22:00 +14°C° 0.1 mm 1 m/s 705 mmHg 91%
23:00 +14°C° 0 mm 1 m/s 705 mmHg 91%

Depois de amanhã, 24 Setembro, Quinta-feira

Tempo Temperatura Precipitação Vento Pressão Humidade
00:00 +14°C° 0 mm 1 m/s 705 mmHg 90%
01:00 +14°C° 0 mm 1 m/s 705 mmHg 90%
02:00 +14°C° 0 mm 1 m/s 705 mmHg 89%
03:00 +14°C° 0 mm 1 m/s 705 mmHg 88%
04:00 +14°C° 0 mm 1 m/s 705 mmHg 88%
05:00 +14°C° 0.1 mm 1 m/s 705 mmHg 88%
06:00 +14°C° 0.1 mm 1 m/s 705 mmHg 89%
07:00 +14°C° 0.1 mm 1 m/s 706 mmHg 89%
08:00 +16°C° 0.1 mm 1 m/s 706 mmHg 85%
09:00 +18°C° 0.1 mm 1 m/s 706 mmHg 81%
10:00 +20°C° 0.1 mm 1 m/s 706 mmHg 77%
11:00 +21°C° 0.3 mm 1 m/s 706 mmHg 73%
12:00 +21°C° 0.3 mm 1 m/s 705 mmHg 69%
13:00 +21°C° 0.3 mm 2 m/s 705 mmHg 66%
14:00 +21°C° 0.7 mm 1 m/s 705 mmHg 73%
15:00 +20°C° 0.7 mm 1 m/s 704 mmHg 79%
16:00 +19°C° 0.7 mm 1 m/s 704 mmHg 86%
17:00 +18°C° 1.1 mm 1 m/s 703 mmHg 89%
18:00 +16°C° 1.1 mm 1 m/s 703 mmHg 92%
19:00 +15°C° 1.1 mm 1 m/s 702 mmHg 95%
20:00 +15°C° 1.2 mm 1 m/s 702 mmHg 96%
21:00 +15°C° 1.2 mm 1 m/s 702 mmHg 96%
22:00 +15°C° 1.2 mm 1 m/s 701 mmHg 97%
23:00 +15°C° 4.7 mm 1 m/s 701 mmHg 97%

25 Setembro, Sexta-feira

Tempo Temperatura Precipitação Vento Pressão Humidade
00:00 +14°C° 4.7 mm 1 m/s 700 mmHg 96%
01:00 +14°C° 4.7 mm 2 m/s 700 mmHg 96%
02:00 +13°C° 3 mm 2 m/s 700 mmHg 95%
03:00 +13°C° 3 mm 2 m/s 700 mmHg 95%
04:00 +12°C° 3 mm 1 m/s 700 mmHg 94%
05:00 +10°C° 3.5 mm 2 m/s 700 mmHg 95%
06:00 +10°C° 3.5 mm 2 m/s 699 mmHg 95%
07:00 +9°C° 3.5 mm 3 m/s 699 mmHg 95%
08:00 +9°C° 2.4 mm 3 m/s 699 mmHg 93%
09:00 +8°C° 2.4 mm 2 m/s 699 mmHg 91%
10:00 +7°C° 2.4 mm 2 m/s 699 mmHg 89%
11:00 +7°C° 0.9 mm 2 m/s 699 mmHg 90%
12:00 +7°C° 0.9 mm 2 m/s 699 mmHg 90%
13:00 +7°C° 0.9 mm 2 m/s 699 mmHg 91%
14:00 +7°C° 0.9 mm 2 m/s 699 mmHg 91%
15:00 +7°C° 0.9 mm 2 m/s 699 mmHg 92%
16:00 +7°C° 0.9 mm 2 m/s 699 mmHg 93%
17:00 +8°C° 0.5 mm 1 m/s 699 mmHg 93%
18:00 +8°C° 0.5 mm 1 m/s 699 mmHg 93%
19:00 +7°C° 0.5 mm 1 m/s 699 mmHg 93%
20:00 +7°C° 0.6 mm 1 m/s 700 mmHg 94%
21:00 +6°C° 0.6 mm 2 m/s 700 mmHg 95%
22:00 +6°C° 0.6 mm 2 m/s 700 mmHg 95%
23:00 +5°C° 0.6 mm 2 m/s 700 mmHg 96%

26 Setembro, Sábado

Tempo Temperatura Precipitação Vento Pressão Humidade
00:00 +4°C° 0.6 mm 3 m/s 700 mmHg 96%
01:00 +4°C° 0.6 mm 3 m/s 700 mmHg 96%
02:00 +4°C° 1.2 mm 3 m/s 701 mmHg 97%
03:00 +4°C° 1.2 mm 3 m/s 701 mmHg 97%
04:00 +3°C° 1.2 mm 3 m/s 701 mmHg 97%
05:00 +3°C° 1.1 mm 4 m/s 702 mmHg 97%
06:00 +3°C° 1.1 mm 4 m/s 702 mmHg 97%
07:00 +3°C° 1.1 mm 4 m/s 703 mmHg 97%
08:00 +3°C° 1.4 mm 4 m/s 703 mmHg 97%
09:00 +3°C° 1.4 mm 4 m/s 703 mmHg 97%
10:00 +1°C° 1.4 mm 4 m/s 703 mmHg 98%
11:00 +3°C° 1.3 mm 4 m/s 703 mmHg 98%
12:00 +3°C° 1.3 mm 4 m/s 703 mmHg 98%
13:00 +3°C° 1.3 mm 4 m/s 704 mmHg 98%
14:00 +3°C° 1 mm 3 m/s 704 mmHg 96%
15:00 +4°C° 1 mm 3 m/s 704 mmHg 95%
16:00 +5°C° 1 mm 2 m/s 704 mmHg 94%
17:00 +5°C° 0.3 mm 2 m/s 704 mmHg 95%
18:00 +4°C° 0.3 mm 2 m/s 704 mmHg 95%
19:00 +4°C° 0.3 mm 2 m/s 704 mmHg 96%
20:00 +5°C° 0.8 mm 1 m/s 704 mmHg 96%
21:00 +4°C° 0.8 mm 1 m/s 704 mmHg 97%
22:00 +4°C° 0.8 mm 1 m/s 704 mmHg 97%
23:00 +4°C° 0.5 mm 1 m/s 704 mmHg 97%

27 Setembro, Domingo

Tempo Temperatura Precipitação Vento Pressão Humidade
00:00 +4°C° 0.5 mm 1 m/s 704 mmHg 97%
01:00 +4°C° 0.5 mm 1 m/s 704 mmHg 97%
02:00 +3°C° 0 mm 1 m/s 704 mmHg 96%
03:00 +2°C° 0 mm 1 m/s 704 mmHg 95%
04:00 +1°C° 0 mm 1 m/s 703 mmHg 94%
05:00 -1°C° 0 mm 2 m/s 703 mmHg 93%
06:00 -1°C° 0 mm 2 m/s 704 mmHg 93%
07:00 -1°C° 0 mm 2 m/s 704 mmHg 92%
08:00 +1°C° 0 mm 3 m/s 703 mmHg 88%
09:00 +2°C° 0 mm 3 m/s 703 mmHg 85%
10:00 +4°C° 0 mm 4 m/s 703 mmHg 81%
11:00 +4°C° 0.6 mm 4 m/s 703 mmHg 86%
12:00 +3°C° 0.6 mm 3 m/s 703 mmHg 90%
13:00 +3°C° 0.6 mm 3 m/s 703 mmHg 95%
14:00 +3°C° 1 mm 3 m/s 703 mmHg 95%
15:00 +4°C° 1 mm 4 m/s 703 mmHg 96%
16:00 +4°C° 1 mm 4 m/s 703 mmHg 97%
17:00 +4°C° 0.7 mm 4 m/s 703 mmHg 97%
18:00 +4°C° 0.7 mm 4 m/s 703 mmHg 97%
19:00 +4°C° 0.7 mm 4 m/s 704 mmHg 96%
20:00 +4°C° 1.6 mm 4 m/s 704 mmHg 97%
21:00 +4°C° 1.6 mm 4 m/s 704 mmHg 97%
22:00 +3°C° 1.6 mm 4 m/s 704 mmHg 97%
23:00 +4°C° 0.4 mm 4 m/s 704 mmHg 96%
Mostrar mais